Location: *
(46.3500°N, 10.9000°E)
Time: 23:54:01
(UTC+00:00)

Vanguard 2 - Pass Details

Date: 28 April 2021
Orbit: 552 x 2938 km, 32.9° (Epoch: 12 May)

Event Time Altitude Azimuth Distance (km) Brightness Sun altitude
Rises 14:38:23 0° 273° (W) 6,526 13.1 36.8°
Reaches altitude 10° 14:44:07 10° 263° (W) 5,217 13.1 35.9°
Maximum altitude 14:54:36 25° 217° (SW) 3,385 11.9 34.1°
Drops below altitude 10° 15:02:15 10° 168° (SSE) 3,694 11.1 32.9°
Sets 15:05:29 0° 154° (SSE) 4,326 11.3 32.3°
